AirNav   Air Wisconsin pilot careers
 
 303 users online  

3MO5 Nimsick Airport
Carthage, Missouri, USA

GOING TO CARTHAGE?


FAA INFORMATION EFFECTIVE 28 FEBRUARY 2019

Location

FAA Identifier: 3MO5
Lat/Long: 37-07-41.2130N / 094-12-58.0000W
37-07.686883N / 094-12.966667W
37.1281147 / -94.2161111
(estimated)
Elevation: 1095 ft. / 334 m (estimated)
Variation: 04E (1990)
From city: 5 miles SE of CARTHAGE, MO
Time zone: UTC -6 (UTC -5 during Daylight Saving Time)
Zip code: 64836

Airport Operations

Airport use: Private use. Permission required prior to landing
Activation date: 05/1992
Control tower: no
ARTCC: KANSAS CITY CENTER
FSS: COLUMBIA FLIGHT SERVICE STATION
Attendance: UNATNDD
Wind indicator: yes
Segmented circle: no

Airport Communications

WX ASOS at JLN (14 nm W): 120.85 (417-623-8892)
WX AWOS-3 at HFJ (16 nm SE): 118.275 (417-476-2613)

Nearby radio navigation aids

VOR radial/distance  VOR name  Freq  Var
EOSr025/20.1NEOSHO VOR/DME117.3007E

Airport Services

Runway Information

Runway 18/36

Dimensions: 2600 x 65 ft. / 792 x 20 m
Surface: turf
RUNWAY 18  RUNWAY 36
Traffic pattern: leftleft
Obstructions: 50 ft. pline, marked, 1300 ft. from runway30 ft. pline

Airport Ownership and Management from official FAA records

Ownership: Privately-owned
Owner: ROBERT NIMSICK
8819 ELM RD
CARTHAGE, MO 64836
Phone 417-358-4324
CELL: 417-793-1431
Manager: ROBERT NIMSICK
8819 ELM RD
CARTHAGE, MO 64836
Phone 417-538-4324

Airport Operational Statistics

Aircraft based on the field: 1
Single engine airplanes: 1
    

Instrument Procedures

There are no published instrument procedures at 3MO5.

Some nearby airports with instrument procedures:

KJLN - Joplin Regional Airport (14 nm W)
KHFJ - Monett Regional Airport (16 nm SE)
KEOS - Neosho Hugh Robinson Airport (21 nm SW)
KLLU - Lamar Municipal Airport (22 nm N)
2H2 - Jerry Sumners Sr. Aurora Municipal Airport (27 nm E)
 
Loc | Ops | Rwys | IFR | FBO | Links
Com | Nav | Svcs | Stats | Notes

Kansas City Aviation Department
 
Area around 3MO5 (Nimsick Airport)
 
Road maps at: MapQuest Bing Google
 
Aerial photo
WARNING: Photo may not be current or correct
Aerial photo of 3MO5 (Nimsick Airport)
Do you have a better or more recent aerial photo of Nimsick Airport that you would like to share? If so, please send us your photo.

 
Sectional chart

 
Airport distance calculator
Flying to Nimsick Airport? Find the distance to fly.

From to 3MO5

Sunrise and sunset
Times for 24-Mar-2019
 Local
(UTC-5)
 Zulu
(UTC)
Morning civil twilight06:4911:49
Sunrise07:1512:15
Sunset19:3100:31
Evening civil twilight19:5700:57

Current date and time
Zulu (UTC)  24-Mar-2019 07:29:41
Local (UTC-5)  24-Mar-2019 02:29:41
 
METAR
KJLN 
14nm W 
240653Z AUTO 14016G26KT 10SM FEW100 11/08 A2998 RMK AO2 PK WND 14027/0637 RAE13 SLP152 P0001 T01060083
KHFJ 
16nm SE 
240715Z AUTO 13014G18KT 10SM -RA SCT065 OVC070 08/08 A3003 RMK AO2
KEOS 
21nm SW 
SuperAWOS
240655Z AUTO 12014G21KT 10SM 10/10 A2999
TAF
KJLN 
14nm W 
240520Z 2406/2506 14008KT P6SM VCSH OVC050 FM241000 19012KT P6SM OVC025 FM241300 21012KT P6SM OVC015 FM241900 26015G22KT P6SM OVC025 FM250000 30008KT P6SM SCT250
NOTAMs
Click for the latest NOTAMs
NOTAMs are issued by the DoD/FAA and will open in a separate window not controlled by AirNav.

 

 
 

Would you like to see your business listed on this page?

 If your business provides an interesting product or service to pilots, flight crews, aircraft, or users of the Nimsick Airport, you should consider listing it here.  To start the listing process, click on the button below
 
Add a business
 

Other Pages about Nimsick Airport

Update a link
 
Copyright © AirNav, LLC. All rights reserved. Privacy Policy  Contact